Theta_e
294 294 294 294 294 295 295 296 297 298 298 299 301 302 303 303 302 296 292 295 290 286 286 287 288 287 285 286 282 282 283 282 282 281 282 280 278 277 278 277 278 279 278 278 276 277 276 279 277 279 283 279 281 282
293 293 293 294 294 295 295 295 296 297 297 298 300 302 302 302 302 296 290 294 292 287 285 287 289 289 289 290 284 283 284 282 286 283 281 278 275 275 276 275 276 277 281 280 281 282 279 281 281 283 283 283 281 282
293 293 293 293 294 294 294 295 295 296 297 298 299 301 302 302 302 297 291 291 289 284 285 285 284 288 290 291 291 284 284 286 285 285 281 279 276 277 274 275 274 276 277 278 280 278 278 280 280 282 282 283 282 283
292 293 293 293 294 294 294 294 295 296 297 297 298 299 301 301 302 298 290 293 289 284 279 281 285 285 289 291 288 288 286 285 284 284 281 279 278 278 277 278 277 278 277 275 275 276 278 279 281 282 282 281 280 280
292 293 293 294 294 294 294 294 294 295 296 297 297 297 300 301 301 298 293 293 292 288 280 279 281 284 286 288 287 287 286 284 282 280 279 278 278 278 277 277 276 277 276 275 276 279 281 281 282 282 281 281 281 281
291 292 293 293 293 293 293 294 294 294 295 295 296 296 299 300 300 294 285 292 293 292 284 278 279 280 284 285 284 284 284 283 283 281 279 279 280 280 276 275 278 279 279 281 279 281 281 281 282 282 281 281 281 280
290 291 292 292 293 293 293 294 294 294 294 294 295 297 298 299 298 286 286 291 295 293 284 277 276 280 282 282 281 282 283 282 283 279 278 279 278 280 276 274 278 279 280 280 281 280 278 279 280 281 281 281 279 277
290 291 291 291 292 292 293 293 294 294 294 294 295 297 298 299 298 289 293 296 295 287 285 275 273 276 282 280 279 281 281 282 280 278 279 278 279 278 274 277 279 280 280 279 279 281 281 280 279 278 278 277 275 276
289 290 290 290 291 292 293 293 294 294 293 294 295 297 295 292 285 286 297 297 293 287 281 276 273 272 281 280 281 282 283 277 281 277 278 279 275 273 278 278 278 279 279 280 279 278 276 277 278 276 276 273 275 277
289 289 289 290 291 293 293 293 293 293 293 294 293 286 282 285 293 296 286 283 283 283 282 275 273 274 280 279 276 277 278 275 273 276 279 277 275 280 280 280 281 280 281 278 275 273 271 273 275 275 275 277 277 278
289 289 290 290 291 293 293 293 293 293 293 288 282 281 287 293 285 282 279 279 278 276 278 272 272 274 278 275 275 277 275 275 270 273 274 272 272 276 269 275 271 270 273 276 278 279 278 278 278 277 274 274 274 273
288 288 290 290 291 293 293 293 293 290 285 285 285 286 285 282 279 275 274 275 275 274 272 272 273 276 275 279 277 276 274 273 269 272 273 269 273 264 261 262 263 263 262 265 267 270 271 271 269 270 268 266 265 264
287 288 289 289 291 292 293 293 293 291 291 286 283 280 278 276 272 270 268 269 271 270 271 271 272 275 275 278 275 274 271 270 271 270 269 271 263 260 257 258 257 259 259 261 262 263 263 261 260 260 259 257 257 256
286 288 288 289 290 292 293 294 294 290 284 278 276 271 273 271 271 271 272 272 273 273 272 275 272 275 274 274 273 271 269 271 268 266 267 263 258 255 255 255 253 254 255 256 257 258 257 257 255 254 254 255 255 255
285 285 286 287 289 289 290 292 289 285 280 275 274 267 270 266 261 258 259 267 268 275 274 273 273 275 271 272 271 268 267 266 266 266 263 259 255 254 254 253 252 252 252 253 254 254 255 254 253 251 251 252 252 252
284 282 282 287 287 287 288 285 282 281 271 271 264 265 261 265 262 262 264 267 268 273 273 274 270 270 269 271 267 266 266 264 265 260 257 256 254 253 252 251 251 251 250 251 251 252 252 251 251 250 250 250 251 252
280 276 284 286 286 284 282 278 274 267 265 265 260 259 258 261 261 261 264 267 270 272 270 269 267 268 272 267 264 263 264 259 258 257 257 255 254 253 252 252 251 251 250 250 249 249 249 249 249 253 252 251 252 252
274 276 283 284 280 278 271 268 267 264 259 259 260 258 259 259 260 259 262 265 269 269 268 268 270 263 261 261 259 255 254 256 256 255 254 253 253 252 251 251 250 250 250 250 251 250 250 252 254 253 252 252 252 252
276 278 281 280 276 269 267 264 264 259 257 260 260 261 259 260 260 259 259 261 261 259 260 258 251 249 249 250 249 252 252 252 252 253 254 253 253 252 253 253 252 252 252 252 253 252 252 251 252 253 253 254 254 253
279 279 278 276 273 267 264 260 264 261 258 257 259 259 259 258 259 257 255 254 254 252 247 247 246 247 248 249 250 251 251 253 252 252 254 254 254 253 252 252 253 253 253 253 253 253 254 254 254 254 254 254 255 254
271 272 271 264 261 259 257 257 257 257 259 257 257 259 257 258 254 253 252 253 249 246 246 247 248 249 250 250 252 251 251 251 251 251 252 253 254 254 253 254 254 254 254 255 255 253 254 252 251 250 252 252 251 251
267 271 260 262 259 256 256 258 257 257 257 255 256 256 253 253 252 250 253 248 247 248 248 248 248 249 249 250 251 251 251 251 252 253 254 254 253 253 253 252 254 252 252 251 252 252 251 250 249 249 251 251 250 251
264 264 259 257 255 253 254 259 254 254 256 254 255 253 251 251 253 254 248 248 248 250 250 249 249 250 250 251 252 251 251 250 251 250 251 252 252 252 253 252 252 253 253 252 250 250 250 250 251 251 251 251 251 252
259 251 250 248 250 250 254 252 254 253 254 252 251 248 248 249 252 248 244 246 248 250 249 248 249 250 251 251 250 250 249 251 252 252 251 253 253 251 251 251 251 251 250 250 250 250 250 250 249 250 250 249 249 249
250 243 246 244 248 248 249 250 249 249 248 249 248 248 248 249 245 243 244 245 246 247 248 248 248 248 248 249 250 251 250 250 250 251 250 251 252 253 252 252 251 250 250 252 251 250 250 250 250 250 250 250 250 250
240 242 242 243 244 243 244 245 245 245 246 244 245 248 248 244 241 239 242 245 246 246 247 247 246 247 248 249 248 249 250 252 251 251 250 250 251 251 250 250 250 252 251 249 249 249 250 251 251 251 252 253 252 252
241 241 245 248 245 245 245 246 246 244 242 242 242 246 245 240 239 243 247 248 247 249 250 250 248 248 248 249 251 252 253 251 250 250 251 251 251 252 251 250 250 252 254 253 252 251 250 251 251 252 252 253 252 252
243 243 241 244 243 243 242 242 241 240 241 242 244 240 239 238 240 246 248 250 251 251 251 251 251 251 250 250 250 250 251 251 251 251 251 252 252 252 252 252 252 256 253 253 253 253 253 253 253 251 250 250 250 250
244 244 245 242 243 241 240 240 240 242 242 240 242 242 243 246 246 247 249 251 251 250 248 248 248 249 249 247 245 247 247 247 244 241 240 242 244 246 249 249 248 249 250 248 251 253 253 253 253 251 249 248 248 247
242 242 242 240 240 240 241 240 242 243 243 243 244 247 247 246 249 251 250 249 248 247 247 245 242 241 241 240 241 242 240 242 241 241 239 240 242 245 246 246 247 247 248 243 247 247 249 248 247 245 245 245 245 245
244 242 242 242 242 242 243 243 244 246 248 247 246 246 245 246 248 249 249 245 244 242 241 241 241 237 237 240 237 236 239 240 239 240 238 240 243 243 244 246 247 248 243 243 243 243 244 244 244 243 242 242 242 242
243 240 243 243 242 244 244 244 244 244 245 244 244 244 244 244 242 244 247 242 239 238 240 236 236 243 239 237 236 237 241 242 240 243 241 245 245 246 247 248 247 244 243 244 244 243 243 241 241 241 242 241 241 241
242 243 243 244 243 243 243 243 245 244 244 244 244 243 243 243 242 244 246 241 241 239 239 238 239 241 239 239 239 240 242 239 239 248 247 250 250 250 251 249 244 240 242 243 243 242 241 241 241 241 240 240 240 240
Wind_Speed
20 21 22 23 23 23 23 23 24 18 19 21 20 20 19 17 23 7 3 5 3 2 2 5 2 3 2 3 6 6 4 2 1 4 4 4 4 6 3 1 4 9 9 5 3 4 10 9 5 8 2 3 5 6
22 23 24 23 23 22 23 24 23 25 15 22 21 21 21 20 24 7 4 4 2 2 1 2 2 1 1 1 5 5 1 3 4 4 2 4 3 3 3 5 2 5 2 4 7 2 3 10 3 2 1 6 5 7
22 24 24 23 25 24 24 23 24 24 18 22 19 20 19 21 25 12 5 5 2 0 1 1 3 1 2 0 1 4 1 3 2 3 4 3 4 4 6 5 2 3 2 2 3 3 3 7 2 2 2 3 5 3
21 23 23 23 24 26 25 24 23 25 21 19 19 20 17 19 23 17 5 7 3 4 2 2 2 1 3 4 2 3 3 6 5 1 2 2 2 3 4 2 3 2 8 6 2 2 3 2 7 5 6 2 5 4
18 19 20 22 24 25 26 26 24 23 21 20 16 18 15 15 20 13 6 8 5 4 4 1 2 3 3 6 8 5 7 6 2 2 2 2 3 3 2 1 5 6 7 5 4 9 6 8 17 13 8 8 7 7
15 18 18 17 16 17 20 26 25 25 23 20 16 18 20 17 17 4 4 4 8 4 3 2 2 4 4 5 7 8 5 3 2 2 2 1 0 1 4 4 1 6 7 5 4 7 4 2 5 8 10 8 8 8
16 17 18 17 17 17 19 22 27 25 23 22 19 16 20 16 10 4 2 4 20 6 3 2 1 2 2 3 2 2 2 2 1 3 2 3 2 3 2 4 6 8 7 5 3 7 0 3 4 6 6 5 4 2
18 18 18 17 19 20 20 20 24 24 23 24 21 16 19 17 13 6 5 14 15 5 4 4 2 2 3 3 3 1 2 0 3 3 1 3 2 0 5 2 6 8 8 4 6 6 3 3 5 3 3 4 4 6
19 20 19 20 24 25 23 19 24 25 23 23 19 17 9 7 4 2 19 23 3 3 5 4 8 7 5 3 3 2 1 2 1 2 2 2 3 6 7 6 9 9 9 7 6 1 3 2 3 3 5 3 6 8
19 18 18 21 28 29 21 18 24 23 21 23 9 5 4 4 13 19 4 5 3 3 2 3 1 5 5 3 3 4 1 4 4 3 4 4 5 13 4 8 1 6 9 7 5 2 1 6 7 7 10 8 10 8
15 17 19 20 33 23 15 18 24 22 24 6 4 3 3 13 4 1 3 5 3 5 4 3 3 7 1 4 4 1 4 4 5 4 6 4 6 1 15 8 11 11 9 5 5 3 6 5 5 6 5 7 6 3
10 15 18 19 31 19 12 18 23 15 3 7 4 6 3 3 3 4 3 3 2 5 3 6 5 4 3 2 4 4 3 2 4 5 4 4 2 7 11 11 13 13 12 10 7 5 3 3 4 2 3 1 2 3
10 16 17 22 33 11 12 15 18 14 17 4 1 5 4 3 5 7 6 2 4 5 6 6 6 5 3 2 3 3 5 3 6 3 4 4 3 6 10 10 11 10 10 7 7 5 7 6 6 4 4 4 5 6
7 18 21 24 28 18 11 13 16 21 6 2 4 6 3 4 4 5 6 6 3 5 9 6 6 4 2 3 3 5 3 4 4 5 6 2 4 7 7 7 6 10 9 7 6 6 7 8 8 8 7 5 5 7
4 15 22 20 23 26 18 3 15 4 3 3 4 6 4 5 4 2 2 3 1 7 5 5 5 3 2 5 2 5 3 3 6 5 2 1 4 6 7 7 7 7 7 5 5 5 6 6 7 8 6 6 7 6
9 7 14 24 21 24 22 10 5 3 5 5 9 4 2 4 1 1 1 5 1 4 3 3 4 4 2 4 4 5 9 7 3 2 2 2 3 4 5 6 5 4 3 4 5 4 5 5 6 7 6 7 6 6
11 4 22 22 14 14 23 6 4 8 6 5 3 2 3 5 4 2 2 3 2 2 3 4 4 4 5 4 4 3 2 3 2 3 2 4 5 6 6 5 5 5 5 5 3 5 4 3 2 4 9 5 6 6
4 7 19 21 10 6 5 8 5 6 8 4 5 5 3 4 2 4 4 6 3 3 1 2 4 4 3 5 4 3 5 3 4 4 4 5 5 4 4 4 3 2 3 3 3 2 3 4 5 5 4 4 5 5
6 11 20 22 8 5 5 6 4 6 4 1 3 2 3 2 7 7 6 7 6 5 5 6 11 5 3 4 3 3 4 4 4 3 2 3 4 4 3 2 2 3 3 3 4 4 4 5 4 3 3 2 4 2
10 17 21 16 10 4 6 5 5 6 4 2 3 5 4 4 3 7 11 9 7 6 11 10 4 2 2 2 3 3 4 5 5 2 2 3 4 4 5 4 3 2 3 3 3 3 3 3 3 3 3 2 3 3
10 9 15 8 5 8 6 4 6 4 3 5 3 3 4 3 6 8 8 8 9 8 5 3 3 4 4 4 3 3 4 4 3 2 2 3 3 2 2 2 2 2 2 2 2 3 4 3 2 2 2 2 2 1
4 12 4 8 6 5 6 5 3 2 4 2 3 4 5 5 5 7 5 11 7 4 4 4 5 5 5 4 5 3 4 4 3 2 2 3 1 1 2 3 2 3 3 3 3 2 2 1 1 1 1 1 1 1
9 7 6 10 8 8 3 2 4 5 4 3 3 6 5 4 4 3 8 6 3 4 5 4 7 4 3 4 2 3 5 5 4 3 3 2 2 3 2 4 4 3 2 3 2 2 2 3 2 2 2 2 2 2
12 11 10 7 9 4 3 6 4 4 4 5 5 5 5 3 2 6 7 3 3 5 6 9 6 4 2 3 5 5 5 3 3 4 4 2 4 4 3 3 3 4 3 2 3 3 3 3 4 3 3 3 3 3
13 14 9 10 6 7 9 6 7 6 6 6 5 5 4 3 6 6 4 3 4 4 5 6 5 4 4 4 4 4 3 4 3 5 6 5 1 3 4 5 5 4 3 4 4 3 3 3 2 3 3 3 5 6
13 7 8 8 7 6 5 5 7 7 5 6 5 2 3 5 7 5 1 3 2 2 4 4 3 4 5 4 4 5 6 4 2 4 4 5 5 4 5 5 4 5 3 2 3 4 5 4 4 5 5 6 6 6
10 7 4 4 3 3 5 4 4 6 7 6 4 5 4 7 5 1 1 1 1 2 3 2 2 3 5 6 6 6 5 4 3 3 1 2 3 4 5 5 5 4 5 5 4 4 5 6 7 7 7 6 5 5
4 6 7 8 5 6 5 5 7 7 4 4 1 7 5 4 2 1 1 3 3 2 3 5 5 5 5 6 6 6 5 6 1 1 1 1 1 4 6 5 5 12 7 6 7 7 6 7 6 4 4 6 6 6
5 6 3 7 5 7 7 5 4 2 2 1 3 4 4 3 1 2 2 4 3 4 5 5 6 5 5 3 4 5 4 5 7 6 5 4 4 3 6 6 5 5 4 4 9 9 11 10 8 8 6 6 7 5
5 4 4 5 7 7 4 2 4 3 2 2 1 8 6 3 4 4 4 4 5 5 4 2 2 3 4 4 4 5 3 2 2 3 1 4 4 6 7 6 6 5 5 2 5 6 9 6 7 6 6 6 6 7
5 3 6 6 5 2 3 3 3 1 6 7 5 8 5 3 1 4 5 2 2 2 4 5 5 3 2 4 2 3 4 3 3 4 4 4 5 6 6 7 6 5 2 4 5 5 7 8 7 8 9 9 10 9
5 5 3 4 1 3 3 4 2 3 3 3 3 2 2 3 2 2 2 3 4 3 2 1 3 7 3 3 3 4 8 5 4 5 7 5 6 7 7 7 4 2 4 7 7 6 7 7 7 8 9 10 10 10
3 4 4 3 2 3 4 4 3 2 3 2 2 1 1 2 1 3 1 2 3 4 4 4 4 5 5 5 5 4 5 4 6 11 12 12 11 11 7 2 1 3 6 7 7 7 9 9 9 10 11 11 11 12
Wind_Direction
277 278 278 275 273 269 265 263 262 252 278 275 267 249 223 218 187 147 151 170 165 220 224 196 183 160 130 148 157 141 123 192 166 191 176 161 166 196 180 141 193 174 165 184 147 218 248 146 107 185 132 43 131 142
283 279 275 275 264 262 267 263 259 257 250 270 272 260 226 213 184 165 128 158 139 196 277 296 223 232 333 348 128 179 14 161 171 135 134 117 146 181 156 193 157 219 220 186 201 194 20 163 65 149 233 144 179 151
284 281 275 271 269 264 261 260 262 252 246 257 258 264 238 214 190 168 135 135 103 87 293 299 216 80 199 153 18 142 186 165 158 7 128 127 160 165 171 216 180 213 193 214 183 89 98 194 72 206 239 162 144 130
287 280 275 273 269 264 256 253 249 247 238 244 240 273 243 217 199 164 156 165 120 109 191 255 321 170 323 162 85 37 109 82 92 31 102 139 133 235 183 111 209 137 155 151 78 85 108 192 234 217 204 142 115 117
304 301 281 283 276 259 255 250 245 245 236 240 244 261 237 208 209 174 144 182 167 148 184 213 310 22 339 170 160 151 141 112 110 95 93 117 104 148 350 324 225 187 158 176 188 184 171 198 210 197 189 186 179 164
314 314 311 304 289 273 268 249 238 235 236 239 241 222 255 207 197 142 145 198 180 123 131 192 11 12 32 127 129 135 140 113 123 127 107 116 135 169 173 229 4 173 181 178 166 173 182 29 134 156 198 196 197 192
311 317 313 318 302 285 286 264 234 229 233 234 231 234 239 222 200 169 177 155 164 121 128 137 158 359 55 89 60 94 48 114 132 114 119 139 149 190 230 224 169 193 199 211 126 109 190 188 185 182 188 196 170 155
307 315 310 311 313 309 292 268 234 224 228 228 224 235 226 227 211 156 180 151 149 112 152 146 112 174 203 124 120 162 121 135 36 118 138 135 128 124 250 152 167 183 196 219 180 211 140 96 134 153 131 129 184 212
303 304 312 315 311 304 292 277 224 221 223 219 211 233 224 218 151 209 154 147 109 141 163 139 156 171 167 120 123 127 105 112 65 111 182 134 162 221 217 162 188 198 184 202 184 178 67 216 177 186 180 190 218 237
297 307 309 313 318 300 273 257 212 215 217 208 188 199 170 199 139 144 81 151 162 160 120 118 106 141 172 134 123 121 134 151 173 188 130 206 239 254 234 218 134 185 223 124 125 220 182 256 221 201 208 211 215 227
303 314 314 313 326 303 246 228 205 205 201 180 168 155 126 120 97 242 142 145 143 140 135 132 155 131 218 137 126 228 156 162 165 177 179 189 257 12 355 52 30 19 359 281 265 267 186 198 210 218 216 221 229 235
335 330 340 340 329 309 251 195 197 184 192 127 163 100 102 105 108 165 112 109 131 153 146 133 158 125 136 136 113 163 136 155 179 138 159 213 236 19 358 354 353 1 353 336 351 346 354 54 31 57 70 71 65 74
349 345 357 357 340 299 218 198 172 168 139 107 338 113 133 125 156 161 146 113 152 167 171 166 130 120 123 121 108 151 153 153 124 163 207 233 38 5 349 342 339 352 359 3 358 23 57 64 48 34 91 56 81 73
357 14 8 12 354 5 225 199 165 132 72 127 141 120 139 150 183 178 164 150 151 127 141 146 104 106 123 100 137 120 73 142 166 175 229 49 352 324 336 345 343 344 355 3 7 32 68 81 73 57 57 64 86 85
359 21 3 8 4 12 2 282 125 73 99 124 113 132 170 107 42 72 59 105 41 133 143 96 73 99 108 114 90 107 107 183 205 221 91 352 336 327 346 349 353 0 360 13 7 28 56 71 84 79 47 69 81 83
28 33 355 0 4 15 17 56 47 60 46 47 33 77 25 81 93 107 83 94 177 132 113 55 106 93 111 124 127 189 157 200 165 96 53 354 3 358 342 343 350 354 6 25 41 51 60 59 85 93 68 55 56 73
54 19 344 354 356 31 24 55 54 49 53 50 55 22 25 35 77 90 17 68 353 75 112 108 101 159 100 115 127 4 121 89 88 95 57 38 18 1 354 358 11 15 33 43 55 58 79 82 101 86 83 58 73 74
40 310 358 360 3 34 38 23 63 59 64 11 63 15 31 358 70 52 14 8 25 79 108 128 99 84 93 140 113 49 41 8 59 61 39 18 11 17 12 358 6 34 66 62 69 81 70 75 83 85 98 101 92 79
13 15 8 9 30 69 54 38 16 90 67 46 84 59 53 91 55 48 34 25 60 30 55 34 56 47 58 34 7 19 8 4 337 337 33 52 41 20 2 4 9 42 53 49 59 63 63 56 76 84 88 95 94 83
1 19 9 23 31 60 55 24 2 69 60 49 39 37 55 30 11 40 32 25 39 47 46 43 45 16 355 346 332 321 322 333 315 333 69 43 41 48 41 27 36 46 77 82 85 102 100 85 55 52 54 63 89 82
24 345 9 43 49 57 70 1 48 52 79 61 348 30 62 26 32 25 30 3 57 38 53 40 349 334 317 295 300 314 324 328 304 330 347 338 13 43 60 40 22 18 21 35 72 49 45 58 38 13 19 58 50 42
344 9 42 16 72 60 77 21 65 57 56 65 53 40 41 38 26 30 20 42 56 27 5 332 328 327 336 351 344 349 323 304 313 331 355 341 358 23 43 27 36 52 39 25 25 41 35 9 352 337 329 14 294 278
13 24 44 14 65 43 17 328 70 14 71 60 51 50 33 48 47 55 71 57 69 12 348 324 323 307 300 327 349 6 7 14 40 20 22 59 59 45 53 51 38 48 57 50 12 358 345 334 315 320 332 336 342 326
33 44 30 40 26 33 339 31 31 45 56 44 56 68 41 37 40 60 70 58 347 341 1 356 354 3 359 17 30 19 3 342 49 43 12 29 72 47 35 51 50 53 32 344 350 349 343 333 330 325 333 328 322 307
64 2 28 4 6 21 28 23 10 34 63 29 68 46 27 35 64 58 64 1 337 351 354 350 351 360 17 353 2 4 12 16 18 48 14 6 76 110 78 71 62 45 3 14 16 1 353 333 326 317 307 281 283 286
64 347 39 357 6 34 352 43 26 19 31 54 40 348 49 66 65 61 61 321 300 308 338 342 337 347 29 16 345 353 344 347 333 70 36 21 38 59 53 52 32 36 41 32 351 342 336 331 320 317 306 301 294 294
46 350 355 47 350 338 46 42 27 48 50 33 354 17 50 65 65 44 314 335 306 300 320 6 25 18 7 360 8 1 6 18 43 82 104 60 47 38 40 32 13 337 338 352 337 305 310 316 311 309 307 309 303 305
58 36 22 338 44 11 54 45 33 25 6 344 322 38 77 87 142 344 339 312 329 5 46 44 37 31 28 19 5 359 1 1 50 109 259 291 35 55 33 8 355 347 342 347 341 329 324 309 308 319 320 313 308 309
35 342 330 21 43 47 42 30 12 340 331 307 70 77 87 62 15 35 359 17 20 52 48 33 23 8 11 357 6 6 11 26 43 41 13 319 332 315 354 336 325 325 323 330 324 333 321 310 335 331 314 291 294 288
347 358 62 39 48 43 349 346 324 312 245 227 102 100 76 54 32 23 33 29 45 50 37 19 335 16 354 1 337 343 337 56 81 114 263 286 268 300 313 312 310 307 313 330 319 312 312 321 309 313 310 305 302 300
319 356 59 44 70 337 298 297 271 56 54 62 54 87 96 137 145 45 32 2 44 48 35 9 349 347 12 341 344 342 321 305 353 319 253 263 274 281 288 289 289 300 303 308 307 302 304 306 301 298 299 296 295 293
13 29 69 79 29 324 0 17 1 68 5 49 22 52 32 61 57 327 314 36 30 17 305 331 346 335 297 260 254 240 241 272 289 301 295 288 285 273 275 280 278 290 304 305 301 294 293 289 290 289 292 290 288 288
28 21 38 75 47 34 8 352 36 50 35 51 23 9 51 114 149 241 292 130 170 206 238 250 264 287 279 270 256 277 269 255 282 313 312 303 310 308 302 299 281 293 298 299 296 292 290 287 287 287 289 287 288 289